Simultaneous Nadir Overpasses (SNOs) Predictions

Prediction of SNOs between NOAA-20 and METOP-C Satellite Orbit:

Table of predicted SNOs for the next 14.0 days since TLE Epoch: 8/23/2019
Index Date (NOAA-20) Time (NOAA-20) Lat,Lon (NOAA-20) SZA (NOAA-20 ) Date (METOP-C) Time (METOP-C) Lat,Lon (METOP-C) SZA (METOP-C ) Distance(km) Time Diff (sec)
1 09/05/2019 15:00:09 73.45, -54.78 66.84 09/05/2019 15:01:15 73.40, -51.90 66.65 91.50 66
2 09/05/2019 15:50:51 -73.34, 112.78 113.28 09/05/2019 15:51:59 -73.31, 115.22 113.42 77.95 68
3 09/05/2019 16:41:33 73.16, -79.50 66.54 09/05/2019 16:42:43 73.08, -77.95 66.38 50.75 70
4 09/05/2019 17:32:15 -73.05, 88.05 113.57 09/05/2019 17:33:26 -73.04, 89.29 113.64 40.15 71
5 09/05/2019 18:22:57 72.86,-104.24 66.25 09/05/2019 18:24:10 72.80,-103.88 66.16 13.73 73
6 09/05/2019 19:13:40 -72.80, 63.20 113.81 09/05/2019 19:14:53 -72.77, 63.37 113.87 7.22 73
7 09/05/2019 20:04:24 72.72,-129.31 66.11 09/05/2019 20:05:33 72.73,-129.36 66.12 2.15 69
8 09/05/2019 20:55:09 -72.76, 37.91 113.83 09/05/2019 20:56:15 -72.74, 37.99 113.86 3.19 66
9 09/05/2019 21:45:54 72.73,-154.71 66.15 09/05/2019 21:46:55 72.71,-154.75 66.12 2.33 61
10 09/05/2019 22:36:38 -72.72, 12.63 113.85 09/05/2019 22:37:37 -72.72, 12.61 113.85 0.86 59
11 09/05/2019 23:27:24 72.73, 179.90 66.18 09/05/2019 23:28:16 72.74, 179.97 66.18 2.34 52
12 09/06/2019 00:18:08 -72.73, -12.76 113.82 09/06/2019 00:18:59 -72.70, -12.78 113.85 2.59 51
13 09/06/2019 01:08:53 72.69, 154.62 66.16 09/06/2019 01:09:38 72.72, 154.59 66.18 3.14 45
14 09/06/2019 01:59:38 -72.73, -38.16 113.78 09/06/2019 02:00:20 -72.73, -38.05 113.79 3.33 42
15 09/06/2019 02:50:23 72.70, 129.23 66.20 09/06/2019 02:51:00 72.70, 129.21 66.19 0.79 37
16 09/06/2019 03:41:07 -72.69, -63.44 113.80 09/06/2019 03:41:42 -72.71, -63.44 113.79 2.32 35
17 09/06/2019 04:31:53 72.71, 103.84 66.23 09/06/2019 04:32:22 72.67, 103.82 66.20 3.54 29
18 09/06/2019 05:22:37 -72.70, -88.83 113.77 09/06/2019 05:23:04 -72.69, -88.82 113.78 0.94 27
19 09/06/2019 06:13:23 72.71, 78.45 66.27 09/06/2019 06:13:43 72.70, 78.54 66.25 3.34 20
20 09/06/2019 07:04:06 -72.66,-114.12 113.79 09/06/2019 07:04:26 -72.67,-114.20 113.77 3.25 20
21 09/06/2019 07:54:52 72.67, 53.16 66.25 09/06/2019 07:55:05 72.68, 53.16 66.26 1.33 13
22 09/06/2019 08:45:35 -72.66,-139.51 113.75 09/06/2019 08:45:47 -72.65,-139.59 113.77 3.08 12
23 09/06/2019 09:36:21 72.68, 27.77 66.28 09/06/2019 09:36:26 72.66, 27.78 66.26 1.92 5
24 09/06/2019 10:27:05 -72.67,-164.90 113.72 09/06/2019 10:27:08 -72.68,-164.87 113.71 1.34 3
25 09/06/2019 11:17:50 72.64, 2.49 66.26 09/06/2019 11:17:48 72.64, 2.39 66.27 3.11 2
26 09/06/2019 12:08:35 -72.68, 169.71 113.69 09/06/2019 12:08:30 -72.66, 169.75 113.71 2.72 5
27 09/06/2019 12:59:20 72.64, -22.91 66.29 09/06/2019 12:59:09 72.67, -22.89 66.32 2.99 11
28 09/06/2019 13:50:04 -72.64, 144.43 113.71 09/06/2019 13:49:52 -72.64, 144.37 113.70 1.89 12
29 09/06/2019 14:40:50 72.65, -48.30 66.33 09/06/2019 14:40:31 72.65, -48.27 66.33 0.91 19
30 09/06/2019 15:31:34 -72.64, 119.04 113.67 09/06/2019 15:31:13 -72.67, 119.09 113.65 3.07 21
31 09/06/2019 16:22:19 72.61, -73.58 66.31 09/06/2019 16:21:53 72.63, -73.65 66.33 3.16 26
32 09/06/2019 17:13:04 -72.65, 93.65 113.64 09/06/2019 17:12:35 -72.64, 93.71 113.64 2.15 29
33 09/06/2019 18:03:49 72.62, -98.97 66.34 09/06/2019 18:03:15 72.61, -99.04 66.34 2.43 34




NCC Satellite Simultaneous Nadir Overpasses (SNOs) Prediction Service
